KA1STV Weather Reports


time (UTC)temp
C
wind
direction
speed
KPH
gust
KPH
rain 1hr
cm
rain 24hr
cm
rain mn
cm
humidity
%
barometer
mb
20260504151115 18 331 1.6 3.2 0.00 0.00 0.00 36 1009.1
20260504150612 17 302 4.8 8.0 0.00 0.00 0.00 37 1009.1
20260504150109 17 244 8.0 11.3 0.00 0.00 0.00 40 1009.2
20260504141038 16 308 6.4 9.7 0.00 0.00 0.00 39 1009.6
20260504140534 16 23 3.2 3.2 0.00 0.00 0.00 40 1009.6
20260504130459 15 330 1.6 1.6 0.00 0.00 0.00 43 1009.9
20260504110346 8 5 1.6 1.6 0.00 0.00 0.00 64 1010.4
20260504100303 1 4 0.0 0.0 0.00 0.00 0.00 89 1010.2
20260504081657 2 352 0.0 0.0 0.00 0.00 0.00 89 1010.1
20260504081153 2 353 0.0 0.0 0.00 0.00 0.00 89 1010.0
20260504080649 2 353 0.0 0.0 0.00 0.00 0.00 88 1009.9
20260504080146 3 353 0.0 1.6 0.00 0.00 0.00 87 1009.9
20260504070114 3 9 0.0 0.0 0.00 0.00 0.00 86 1010.0
20260504050502 3 355 0.0 0.0 0.00 0.00 0.00 83 1010.5
20260504045959 3 355 0.0 0.0 0.00 0.00 0.00 84 1010.5
20260504045455 3 356 1.6 1.6 0.00 0.00 0.00 80 1010.7
20260504044951 3 356 0.0 1.6 0.00 0.00 0.00 78 1010.5
20260504044449 3 356 0.0 0.0 0.00 0.00 0.00 75 1010.5
20260504043946 3 356 0.0 0.0 0.00 0.00 0.00 74 1010.4
20260504043443 3 355 0.0 0.0 0.00 0.00 0.00 72 1010.4
20260504042941 4 355 0.0 0.0 0.00 0.00 0.00 71 1010.3
20260504042437 4 355 0.0 0.0 0.00 0.00 0.00 71 1010.4
20260504041934 3 355 0.0 1.6 0.00 0.00 0.00 71 1010.5
20260504041430 3 357 0.0 1.6 0.00 0.00 0.00 71 1010.7
20260504040926 4 357 0.0 1.6 0.00 0.00 0.00 69 1010.5
20260504040424 4 357 1.6 1.6 0.00 0.00 0.00 69 1010.3
20260504035920 4 358 0.0 1.6 0.00 0.00 0.00 68 1010.4
20260504035417 4 1 0.0 0.0 0.00 0.00 0.00 70 1010.5
20260504034914 5 359 0.0 0.0 0.00 0.00 0.00 68 1010.3
20260504034412 5 354 0.0 0.0 0.00 0.00 0.00 66 1010.4
20260504033908 4 346 1.6 1.6 0.00 0.00 0.00 65 1010.1
20260504033406 4 350 0.0 1.6 0.00 0.00 0.00 64 1010.2
20260504032903 4 359 0.0 1.6 0.00 0.00 0.00 66 1010.0
20260504032400 4 357 0.0 1.6 0.00 0.00 0.00 63 1009.9
20260504031856 4 347 1.6 1.6 0.00 0.00 0.00 67 1010.1
20260504031353 4 356 1.6 1.6 0.00 0.00 0.00 69 1010.0
20260504030850 4 359 1.6 1.6 0.00 0.00 0.00 66 1009.9
20260504030347 4 359 0.0 0.0 0.00 0.00 0.00 70 1010.1
20260504025843 4 350 1.6 1.6 0.00 0.00 0.00 70 1010.0
20260504025340 5 10 0.0 0.0 0.00 0.00 0.00 69 1010.1
20260504024837 5 347 1.6 1.6 0.00 0.00 0.00 64 1010.2
20260504024333 5 9 0.0 0.0 0.00 0.00 0.00 62 1010.0
20260504023830 5 5 0.0 0.0 0.00 0.00 0.00 59 1010.3
20260504023327 5 357 1.6 1.6 0.00 0.00 0.00 58 1010.3
20260504022822 5 331 1.6 1.6 0.00 0.00 0.00 62 1010.3
20260504022320 5 355 0.0 1.6 0.00 0.00 0.00 56 1010.1
20260504021816 5 0 0.0 1.6 0.00 0.00 0.00 63 1010.1
20260504021314 5 352 0.0 1.6 0.00 0.00 0.00 67 1010.1
20260504020811 5 346 1.6 1.6 0.00 0.00 0.00 58 1010.0
20260504020308 6 9 0.0 0.0 0.00 0.00 0.00 54 1010.0
20260504015803 6 356 1.6 1.6 0.00 0.00 0.00 57 1010.0
20260504015300 6 0 0.0 1.6 0.00 0.00 0.00 55 1009.8
20260504014756 6 9 0.0 0.0 0.00 0.00 0.00 60 1009.7
20260504014252 7 356 0.0 1.6 0.00 0.00 0.00 60 1009.6
20260504013750 7 317 1.6 1.6 0.00 0.00 0.00 49 1009.7
20260504013247 7 332 1.6 1.6 0.00 0.00 0.00 49 1009.7
20260504012743 7 352 1.6 1.6 0.00 0.00 0.00 46 1009.7
20260504012242 7 1 1.6 1.6 0.00 0.00 0.00 49 1009.8
20260504011738 7 7 0.0 0.0 0.00 0.00 0.00 48 1009.8
20260504011235 7 355 1.6 1.6 0.00 0.00 0.00 45 1009.5
20260504010731 7 3 0.0 1.6 0.00 0.00 0.00 54 1009.4
20260504010227 7 1 0.0 0.0 0.00 0.00 0.00 50 1009.3
20260504005724 7 351 0.0 1.6 0.00 0.00 0.00 51 1009.3
20260504005221 8 7 1.6 1.6 0.00 0.00 0.00 55 1009.4
20260504004719 8 1 0.0 1.6 0.00 0.00 0.00 50 1009.5
20260504004215 8 8 0.0 0.0 0.00 0.00 0.00 44 1009.1
20260504003712 8 4 0.0 0.0 0.00 0.00 0.00 46 1008.9
20260504003209 9 335 1.6 1.6 0.00 0.00 0.00 40 1008.9
20260504002706 9 351 0.0 1.6 0.00 0.00 0.00 40 1008.8
20260504002203 10 355 0.0 0.0 0.00 0.00 0.00 42 1008.8
20260504001701 10 347 1.6 1.6 0.00 0.00 0.00 41 1008.6
20260504001157 10 357 1.6 1.6 0.00 0.00 0.00 40 1008.6
20260504000654 10 338 1.6 1.6 0.00 0.00 0.00 41 1008.5
20260504000151 10 0 0.0 1.6 0.00 0.00 0.00 36 1008.4
20260503235649 10 357 0.0 1.6 0.00 0.00 0.00 37 1008.6
20260503235145 10 355 0.0 1.6 0.00 0.00 0.00 36 1008.3
20260503234644 10 343 1.6 1.6 0.00 0.00 0.00 36 1008.3
20260503234142 11 344 1.6 3.2 0.00 0.00 0.00 35 1008.5
20260503233638 10 311 3.2 3.2 0.00 0.00 0.00 35 1008.4
20260503233134 11 352 3.2 3.2 0.00 0.00 0.00 35 1008.2
20260503232631 11 7 1.6 1.6 0.00 0.00 0.00 38 1008.3
20260503232128 11 325 1.6 1.6 0.00 0.00 0.00 34 1008.1
20260503231626 11 354 1.6 1.6 0.00 0.00 0.00 34 1008.1
20260503231122 11 9 0.0 1.6 0.00 0.00 0.00 34 1008.2
20260503230619 11 332 3.2 4.8 0.00 0.00 0.00 35 1007.9
20260503230117 11 28 0.0 1.6 0.00 0.00 0.00 36 1008.0
20260503225614 11 4 3.2 3.2 0.00 0.00 0.00 39 1008.0
20260503225113 11 345 1.6 1.6 0.00 0.00 0.00 39 1007.9
20260503224611 11 321 1.6 3.2 0.00 0.00 0.00 37 1007.8
20260503224109 11 355 1.6 1.6 0.00 0.00 0.00 37 1007.9
20260503223607 11 351 3.2 4.8 0.00 0.00 0.00 40 1008.0
20260503223102 11 302 4.8 4.8 0.00 0.00 0.00 38 1008.0
20260503222600 11 333 3.2 3.2 0.00 0.00 0.00 40 1008.0
20260503222058 11 7 1.6 1.6 0.00 0.00 0.00 39 1008.1
20260503221556 11 334 3.2 3.2 0.00 0.00 0.00 39 1008.0
20260503221053 11 9 1.6 1.6 0.00 0.00 0.00 38 1008.0
20260503220549 11 14 1.6 1.6 0.00 0.00 0.00 40 1008.0
20260503220046 11 327 3.2 3.2 0.00 0.00 0.00 41 1008.0
20260503215543 11 357 3.2 4.8 0.00 0.00 0.00 38 1007.9
20260503215040 11 33 1.6 1.6 0.00 0.00 0.00 40 1008.0
20260503214539 11 290 4.8 4.8 0.00 0.00 0.00 42 1008.0
20260503214035 11 313 6.4 8.0 0.00 0.00 0.00 39 1008.1
20260503213533 10 343 1.6 1.6 0.00 0.00 0.00 40 1008.0
20260503213030 11 289 4.8 8.0 0.00 0.00 0.00 42 1008.0
20260503212527 11 358 0.0 0.0 0.00 0.00 0.00 42 1008.1
20260503212024 10 283 4.8 4.8 0.00 0.00 0.00 42 1008.0
20260503211521 10 261 4.8 4.8 0.00 0.00 0.00 42 1008.1
20260503211017 10 323 1.6 3.2 0.00 0.00 0.00 41 1007.7
20260503210514 11 313 6.4 11.3 0.00 0.00 0.00 42 1007.9
20260503210009 11 290 4.8 8.0 0.00 0.00 0.00 41 1008.1
20260503205506 11 316 4.8 4.8 0.00 0.00 0.00 42 1008.0
20260503205003 11 324 4.8 4.8 0.00 0.00 0.00 42 1007.8
20260503204500 11 2 3.2 3.2 0.00 0.00 0.00 43 1007.8
20260503203956 11 313 4.8 4.8 0.00 0.00 0.00 40 1008.1
20260503203454 11 325 4.8 4.8 0.00 0.00 0.00 41 1008.1
20260503202950 11 332 1.6 3.2 0.00 0.00 0.00 44 1008.1
20260503202449 10 332 3.2 3.2 0.00 0.00 0.00 45 1007.9
20260503201947 10 324 4.8 4.8 0.00 0.00 0.00 43 1008.0
20260503201444 10 306 8.0 11.3 0.00 0.00 0.00 43 1008.0
20260503200941 10 288 6.4 8.0 0.00 0.00 0.00 44 1007.9
20260503200437 10 6 1.6 1.6 0.00 0.00 0.00 44 1007.9
20260503195934 10 359 3.2 3.2 0.00 0.00 0.00 43 1008.1
20260503195432 10 313 4.8 8.0 0.00 0.00 0.00 44 1007.8
20260503194927 10 301 6.4 9.7 0.00 0.00 0.00 44 1007.9
20260503194425 10 289 3.2 3.2 0.00 0.00 0.00 45 1007.8
20260503193915 10 292 8.0 11.3 0.00 0.00 0.00 42 1007.8
20260503193410 10 240 4.8 4.8 0.00 0.00 0.00 45 1008.1
20260503192906 10 297 8.0 9.7 0.00 0.00 0.00 43 1008.1
20260503192403 10 320 4.8 4.8 0.00 0.00 0.00 44 1007.9
20260503191859 10 248 11.3 12.9 0.00 0.00 0.00 42 1008.1
20260503191356 10 358 6.4 9.7 0.00 0.00 0.00 43 1007.9
20260503190852 10 353 6.4 8.0 0.00 0.00 0.00 42 1007.9
20260503190350 10 349 8.0 9.7 0.00 0.00 0.00 42 1008.0
20260503185847 10 343 3.2 3.2 0.00 0.00 0.00 44 1008.0
20260503185343 10 296 8.0 9.7 0.00 0.00 0.00 43 1008.2
20260503184843 10 298 6.4 9.7 0.00 0.00 0.00 44 1008.0
20260503184339 10 311 6.4 11.3 0.00 0.00 0.00 45 1008.1
20260503183835 10 8 4.8 8.0 0.00 0.00 0.00 45 1008.0
20260503183332 10 339 3.2 4.8 0.00 0.00 0.00 44 1007.8
20260503182830 10 305 4.8 8.0 0.00 0.00 0.00 44 1008.1
20260503182329 10 286 6.4 9.7 0.00 0.00 0.00 46 1008.0
20260503181825 10 306 9.7 11.3 0.00 0.00 0.00 44 1007.9
20260503181322 10 317 4.8 4.8 0.00 0.00 0.00 43 1007.9
20260503180819 10 278 4.8 4.8 0.00 0.00 0.00 42 1007.7
20260503180317 10 285 8.0 9.7 0.00 0.00 0.00 45 1007.9
20260503175813 10 253 9.7 11.3 0.00 0.00 0.00 43 1007.9
20260503175311 10 305 3.2 3.2 0.00 0.00 0.00 45 1008.1
20260503174806 10 294 4.8 8.0 0.00 0.00 0.00 45 1008.0
20260503174305 10 305 6.4 8.0 0.00 0.00 0.00 45 1008.0
20260503173800 11 6 4.8 9.7 0.00 0.00 0.00 48 1007.8
20260503173256 10 283 4.8 4.8 0.00 0.00 0.00 47 1008.1
20260503172753 9 322 3.2 3.2 0.00 0.00 0.00 49 1008.1
20260503172250 9 341 4.8 8.0 0.00 0.00 0.00 51 1008.2
20260503171746 8 342 6.4 8.0 0.00 0.00 0.00 51 1008.5
20260503171244 8 6 1.6 1.6 0.00 0.00 0.00 52 1008.4
20260503170741 8 329 8.0 9.7 0.00 0.00 0.00 50 1008.1
20260503170237 9 6 3.2 4.8 0.00 0.00 0.00 51 1008.2
20260503160159 10 315 3.2 8.0 0.00 0.00 0.00 49 1007.7